Amateur Radio Satellites - All Passes

Search period start: 19 May 2013 13:39
Search period end: 20 May 2013 13:39
Location: Hartford, 41.7640°N, 72.6860°W

Satellite Date Start Highest point End Downlink Frequencies (MHz)
Time Altitude Azimuth
UOSAT-12 19 May 13:41:32 13:45:35 31° 312° (NW) 13:49:40 437.025 FM, 437.400 FM
Uribyol 2 19 May 13:54:28 13:59:38 81° 75° (ENE) 14:04:51 436.500 FM
Oscar 19 19 May 14:05:19 14:10:29 72° 258° (WSW) 14:15:43 437.125 CW, 437.150 USB
PANSAT 19 May 14:26:36 14:27:33 11° 174° (S) 14:28:29 not established
Uosat F 19 May 14:28:53 14:32:57 26° 65° (ENE) 14:37:01 435.120 FM
TMSAT-1 19 May 14:30:59 14:33:56 15° 60° (ENE) 14:36:54 436.925 FM
AO-7 19 May 14:34:12 14:38:20 15° 45° (NE) 14:42:28 29.400 - 29.500 MHz
AO-Echo 19 May 14:38:27 14:43:20 68° 74° (ENE) 14:48:06 ?
Saudisat 1A 19 May 14:44:33 14:48:37 30° 47° (NE) 14:52:36 436.775 MHz
AO-27 19 May 14:44:55 14:49:38 36° 263° (W) 14:54:23 436.795 MHz FM
Oscar 16 19 May 14:45:05 14:49:26 27° 265° (W) 14:53:49 437.025 USB, Beacon 2401.1428
Gurwin Techsat 1B 19 May 14:48:31 14:53:08 32° 67° (ENE) 14:57:47 435.225 FM
ITAMSAT 1 19 May 14:52:44 14:57:17 31° 264° (W) 15:01:52 435.822 SSB
RS-15 19 May 15:03:20 15:09:32 16° 97° (E) 15:15:35 29.354 - 29.394 USB, Beacon 29.352 USB
Sapphire 19 May 15:30:41 15:32:39 12° 35° (NE) 15:34:36 437.095 MHz 1200 baud AX-25 AFSK
Uribyol 2 19 May 15:37:52 15:39:45 12° 271° (W) 15:41:38 436.500 FM
PANSAT 19 May 16:06:22 16:07:05 10° 187° (S) 16:07:48 not established
Uosat F 19 May 16:06:55 16:11:33 38° 262° (W) 16:16:14 435.120 FM
TMSAT-1 19 May 16:07:57 16:13:14 76° 257° (WSW) 16:18:33 436.925 FM
AO-Echo 19 May 16:20:19 16:22:34 13° 270° (W) 16:24:47 ?
AO-7 19 May 16:21:22 16:29:28 62° 66° (ENE) 16:37:38 29.400 - 29.500 MHz
Saudisat 1A 19 May 16:24:15 16:28:19 33° 245° (WSW) 16:32:17 436.775 MHz
Gurwin Techsat 1B 19 May 16:28:17 16:33:03 33° 264° (W) 16:37:50 435.225 FM
PCSat 19 May 16:39:22 16:44:18 34° 51° (NE) 16:49:12 145.825 MHz
RS-15 19 May 17:07:53 17:19:51 71° 117° (ESE) 17:31:19 29.354 - 29.394 USB, Beacon 29.352 USB
SO-50 19 May 17:08:48 17:11:57 18° 40° (NE) 17:15:04 436.795 FM
Sapphire 19 May 17:11:57 17:17:19 57° 57° (ENE) 17:22:38 437.095 MHz 1200 baud AX-25 AFSK
JAS-1B 19 May 17:42:20 17:47:23 17° 55° (NE) 17:52:03 435.800 - 435.900 CW/SSB
AO-7 19 May 18:15:45 18:22:43 30° 265° (W) 18:29:46 29.400 - 29.500 MHz
Hamsat 19 May 18:19:33 18:23:02 26° 68° (ENE) 18:26:32 145.90 MHz
PCSat 19 May 18:22:47 18:27:45 37° 249° (WSW) 18:32:41 145.825 MHz
SO-50 19 May 18:48:32 18:53:04 69° 240° (WSW) 18:57:30 436.795 FM
STRAND 1 19 May 18:49:47 18:54:38 41° 98° (E) 18:59:28 ?
Sapphire 19 May 18:56:21 19:00:18 21° 254° (WSW) 19:04:13 437.095 MHz 1200 baud AX-25 AFSK
RS-15 19 May 19:22:05 19:33:08 41° 321° (NW) 19:43:47 29.354 - 29.394 USB, Beacon 29.352 USB
JAS-1B 19 May 19:27:27 19:36:50 71° 72° (ENE) 19:44:54 435.800 - 435.900 CW/SSB
SO-67 19 May 19:34:24 19:37:53 56° 75° (ENE) 19:41:25 435.3500 MHz FM
Hamsat 19 May 19:55:28 19:59:02 27° 265° (W) 20:02:38 145.90 MHz
HO-68 19 May 20:13:21 20:19:22 31° 60° (ENE) 20:25:23 435.675 MHz FM
STRAND 1 19 May 20:29:28 20:33:37 25° 295° (WNW) 20:37:45 ?
UOSAT-12 19 May 20:30:33 20:34:42 32° 48° (NE) 20:38:50 437.025 FM, 437.400 FM
JAS-2 19 May 20:43:32 20:50:18 36° 63° (ENE) 20:57:13 435.800 - 435.900 CW/SSB, 435.910 FM
JAS-1B 19 May 21:19:59 21:27:40 28° 266° (W) 21:34:38 435.800 - 435.900 CW/SSB
OPAL 19 May 21:20:05 21:24:29 29° 64° (ENE) 21:28:52 ?
RS-15 19 May 21:41:25 21:49:51 22° 354° (N) 21:58:02 29.354 - 29.394 USB, Beacon 29.352 USB
Oscar 11 19 May 21:43:43 21:48:00 70° 75° (ENE) 21:52:19 145.825 FM, Beacon 2401.500 USB
HO-68 19 May 21:59:44 22:06:41 55° 258° (WSW) 22:13:41 435.675 MHz FM
UOSAT-12 19 May 22:10:46 22:14:50 31° 245° (WSW) 22:18:53 437.025 FM, 437.400 FM
AO-40 19 May 22:16:28 04:15:25 44° 176° (S) 11:09:17 Beacon 2401.320
JAS-2 19 May 22:27:32 22:34:56 54° 262° (W) 22:42:38 435.800 - 435.900 CW/SSB, 435.910 FM
OPAL 19 May 22:58:24 23:03:13 38° 260° (W) 23:08:02 ?
KITSAT 1 19 May 23:13:11 23:20:44 47° 111° (ESE) 23:28:21 435.175 FM
Oscar 11 19 May 23:24:14 23:24:42 10° 271° (W) 23:25:11 145.825 FM, Beacon 2401.500 USB
RS-15 19 May 23:57:31 00:07:15 31° 30° (NNE) 00:16:39 29.354 - 29.394 USB, Beacon 29.352 USB
KITSAT 1 20 May 01:08:33 01:16:10 45° 312° (NW) 01:23:53 435.175 FM
Oscar 16 20 May 01:18:35 01:20:50 13° 89° (E) 01:23:03 437.025 USB, Beacon 2401.1428
ITAMSAT 1 20 May 01:28:25 01:29:38 11° 88° (E) 01:30:52 435.822 SSB
Oscar 10/S400 20 May 01:50:04 05:40:16 23° 82° (E) 07:39:41 145.825 - 145.975 CW/USB, Beacon 145.810 USB
Uribyol 2 20 May 02:07:31 02:12:02 29° 95° (E) 02:16:31 436.500 FM
RS-15 20 May 02:10:13 02:21:26 86° 57° (ENE) 02:32:20 29.354 - 29.394 USB, Beacon 29.352 USB
Oscar 19 20 May 02:17:00 02:21:52 40° 98° (E) 02:26:40 437.125 CW, 437.150 USB
MaSat-1 20 May 02:22:17 02:29:26 62° 112° (ESE) 02:35:23 437.345 MHz
AO-Echo 20 May 02:46:12 02:49:42 20° 93° (E) 02:53:14 ?
Oscar 16 20 May 02:55:35 03:00:47 77° 286° (WNW) 03:05:55 437.025 USB, Beacon 2401.1428
AO-27 20 May 02:57:06 03:02:22 81° 104° (ESE) 03:07:35 436.795 MHz FM
ITAMSAT 1 20 May 03:04:34 03:09:50 88° 285° (WNW) 03:15:03 435.822 SSB
Gurwin Techsat 1B 20 May 03:06:25 03:08:16 12° 88° (E) 03:10:06 435.225 FM
KITSAT 1 20 May 03:09:30 03:14:03 16° 338° (NNW) 03:18:36 435.175 FM
Uribyol 2 20 May 03:46:48 03:51:33 36° 292° (WNW) 03:56:17 436.500 FM
Oscar 19 20 May 03:56:47 04:01:00 26° 295° (WNW) 04:05:12 437.125 CW, 437.150 USB
MaSat-1 20 May 04:06:06 04:11:52 28° 306° (NW) 04:16:48 437.345 MHz
ISS 20 May 04:09:30 04:12:48 74° 143° (SE) 04:16:08 145.800 FM
Uosat F 20 May 04:13:58 04:18:58 64° 102° (ESE) 04:23:57 435.120 FM
TMSAT-1 20 May 04:23:45 04:28:49 43° 98° (E) 04:33:50 436.925 FM
AO-7 20 May 04:24:12 04:29:39 19° 90° (E) 04:35:04 29.400 - 29.500 MHz
AO-Echo 20 May 04:24:14 04:28:41 42° 289° (WNW) 04:33:11 ?
RS-15 20 May 04:24:16 04:32:17 24° 259° (W) 04:40:15 29.354 - 29.394 USB, Beacon 29.352 USB
Oscar 16 20 May 04:38:22 04:39:14 10° 303° (WNW) 04:40:07 437.025 USB, Beacon 2401.1428
AO-27 20 May 04:38:34 04:41:12 14° 301° (WNW) 04:43:50 436.795 MHz FM
Gurwin Techsat 1B 20 May 04:43:33 04:48:54 85° 285° (WNW) 04:54:13 435.225 FM
ITAMSAT 1 20 May 04:46:28 04:48:33 12° 302° (WNW) 04:50:38 435.822 SSB
KITSAT 1 20 May 05:10:47 05:13:45 12° 10° (N) 05:16:43 435.175 FM
ISS 20 May 05:47:04 05:49:49 23° 341° (NNW) 05:52:34 145.800 FM
Uosat F 20 May 05:54:10 05:57:16 17° 299° (WNW) 06:00:21 435.120 FM
TMSAT-1 20 May 06:04:13 06:08:29 25° 295° (WNW) 06:12:45 436.925 FM
STRAND 1 20 May 06:06:05 06:11:05 61° 72° (ENE) 06:16:07 ?
AO-7 20 May 06:15:01 06:23:26 90° 288° (WNW) 06:31:49 29.400 - 29.500 MHz
Gurwin Techsat 1B 20 May 06:26:06 06:28:03 12° 302° (WNW) 06:29:59 435.225 FM
Saudisat 1A 20 May 06:31:03 06:35:33 63° 120° (ESE) 06:40:07 436.775 MHz
KITSAT 1 20 May 07:05:48 07:12:34 28° 39° (NE) 07:19:18 435.175 FM
JAS-1B 20 May 07:16:46 07:19:20 13° 86° (E) 07:21:50 435.800 - 435.900 CW/SSB
PCSat 20 May 07:22:09 07:26:38 27° 108° (ESE) 07:31:08 145.825 MHz
ISS 20 May 07:25:22 07:27:25 15° 2° (N) 07:29:29 145.800 FM
Hamsat 20 May 07:40:53 07:45:08 52° 99° (E) 07:49:24 145.90 MHz
STRAND 1 20 May 07:47:39 07:50:42 16° 269° (W) 07:53:46 ?
Sapphire 20 May 07:54:06 07:59:17 49° 113° (ESE) 08:04:29 437.095 MHz 1200 baud AX-25 AFSK
AO-7 20 May 08:09:13 08:15:10 22° 309° (NW) 08:21:07 29.400 - 29.500 MHz
Saudisat 1A 20 May 08:12:18 08:15:40 20° 318° (NW) 08:19:03 436.775 MHz
SO-67 20 May 08:34:16 08:37:51 74° 101° (ESE) 08:41:25 435.3500 MHz FM
KITSAT 1 20 May 09:00:47 09:08:57 85° 241° (WSW) 09:17:05 435.175 FM
ISS 20 May 09:02:04 09:04:59 26° 22° (NNE) 09:07:54 145.800 FM
SO-50 20 May 09:04:04 09:08:30 38° 116° (ESE) 09:12:52 436.795 FM
PCSat 20 May 09:04:40 09:09:49 44° 306° (NW) 09:15:01 145.825 MHz
JAS-1B 20 May 09:04:48 09:11:02 78° 287° (WNW) 09:16:42 435.800 - 435.900 CW/SSB
Hamsat 20 May 09:18:15 09:20:48 16° 296° (WNW) 09:23:22 145.90 MHz
HO-68 20 May 09:27:27 09:33:29 29° 95° (E) 09:39:30 435.675 MHz FM
Oscar 11 20 May 09:33:21 09:35:17 13° 90° (E) 09:37:13 145.825 FM, Beacon 2401.500 USB
Sapphire 20 May 09:38:23 09:42:57 27° 312° (NW) 09:47:32 437.095 MHz 1200 baud AX-25 AFSK
JAS-2 20 May 09:38:47 09:44:27 26° 90° (E) 09:49:34 435.800 - 435.900 CW/SSB, 435.910 FM
ISS 20 May 10:38:34 10:41:52 54° 220° (SW) 10:45:10 145.800 FM
SO-50 20 May 10:44:59 10:49:11 30° 313° (NW) 10:53:21 436.795 FM
JAS-1B 20 May 10:58:23 11:00:25 12° 309° (NW) 11:02:23 435.800 - 435.900 CW/SSB
KITSAT 1 20 May 10:58:25 11:03:09 17° 260° (W) 11:07:53 435.175 FM
Oscar 11 20 May 11:07:35 11:11:53 58° 286° (WNW) 11:16:10 145.825 FM, Beacon 2401.500 USB
OPAL 20 May 11:07:48 11:12:45 55° 103° (ESE) 11:17:36 ?
MaSat-1 20 May 11:09:13 11:11:32 16° 48° (NE) 11:13:34 437.345 MHz
HO-68 20 May 11:14:33 11:21:29 55° 293° (WNW) 11:28:25 435.675 MHz FM
JAS-2 20 May 11:23:02 11:29:58 56° 291° (WNW) 11:36:04 435.800 - 435.900 CW/SSB, 435.910 FM
UOSAT-12 20 May 12:21:51 12:26:20 73° 121° (ESE) 12:30:53 437.025 FM, 437.400 FM
Oscar 16 20 May 12:35:19 12:39:07 21° 63° (ENE) 12:42:56 437.025 USB, Beacon 2401.1428
AO-27 20 May 12:38:43 12:41:56 17° 61° (ENE) 12:45:09 436.795 MHz FM
ITAMSAT 1 20 May 12:45:40 12:49:12 19° 62° (ENE) 12:52:45 435.822 SSB
OPAL 20 May 12:47:43 12:51:13 19° 300° (WNW) 12:54:41 ?
MaSat-1 20 May 12:51:01 12:53:39 22° 255° (WSW) 12:55:55 437.345 MHz
HO-68 20 May 13:05:48 13:07:39 11° 313° (NW) 13:09:30 435.675 MHz FM
JAS-2 20 May 13:11:47 13:13:15 11° 312° (NW) 13:14:41 435.800 - 435.900 CW/SSB, 435.910 FM
Saudisat 1A 20 May 13:21:07 13:22:02 11° 32° (NNE) 13:22:58 436.775 MHz
Uribyol 2 20 May 13:25:42 13:30:34 44° 70° (ENE) 13:35:30 436.500 FM

Developed and maintained by Chris Peat, Heavens-Above GmbH. Please read the updated FAQ before sending e-mail. Imprint. DLR
